Weather History for PHTO - March, 2014

Change the Weather History Date:

Tuesday, March 4, 2014

  Actual Average Record
Temperature  
Mean Temperature 72 °F 72 °F  
Max Temperature 77 °F 79 °F 86 °F (1972)
Min Temperature 67 °F 64 °F 58 °F (1971)
Degree Days  
Heating Degree Days 0 0  
Month to date heating degree days 0 0  
Since 1 July heating degree days 0 0  
Cooling Degree Days 7 7  
Month to date cooling degree days 25 25  
Year to date cooling degree days 483 395  
Growing Degree Days 22 (Base 50)    
Moisture  
Dew Point 65 °F    
Average Humidity 82    
Maximum Humidity 100    
Minimum Humidity 64    
Precipitation  
Precipitation T in 0.40 in 2.88 in (1974)
Month to date precipitation 0.37 1.60  
Year to date precipitation 8.60 20.42  
Snow  
Snow 0.00 in - - ()
Month to date snowfall 0.0  
Since 1 July snowfall 0.0  
Snow Depth 0.00 in    
Sea Level Pressure  
Sea Level Pressure 29.96 in    
Wind  
Wind Speed 4 mph (NW)    
Max Wind Speed 14 mph    
Max Gust Speed 19 mph    
Visibility 10 miles    
Events      
T = Trace of Precipitation, MM = Missing Value Source: NWS Daily Summary

Daily Weather History Graph

Daily Weather History Graph

Search for Another Location

Airport or City:

Trip Planner

Search our weather history database for the weather conditions in past years. The results will help you decide how hot, cold, wet, or windy it might be!

Date:

Astronomy

Mar. 04, 2014 Rise Set
Actual Time 6:37 AM HST 6:26 PM HST
Civil Twilight 6:15 AM HST 6:48 PM HST
Nautical Twilight 5:49 AM HST 7:14 PM HST
Astronomical Twilight 5:24 AM HST 7:39 PM HST
Moon 9:04 AM HST (3/4) 10:06 PM HST (3/4)
Length of Visible Light 12h 33m
Length of Day
11h 49m
Waxing Crescent, 16% of the Moon is Illuminated
Mar 4
Waxing Crescent
Mar 8
First Quarter
Mar 16
Full
Mar 23
Last Quarter
Mar 30
New

Hourly Weather History & Observations

Time (HST) Temp. Dew Point Humidity Pressure Visibility Wind Dir Wind Speed Gust Speed Precip Events Conditions
12:53 AM 68.0 °F 68.0 °F 100% 29.93 in 10.0 mi Calm Calm - N/A   Overcast
1:53 AM 68.0 °F 66.9 °F 96% 29.92 in 10.0 mi Calm Calm - N/A   Overcast
2:53 AM 68.0 °F 66.9 °F 96% 29.91 in 10.0 mi Calm Calm - N/A   Overcast
3:53 AM 68.0 °F 68.0 °F 100% 29.89 in 10.0 mi West 3.5 mph - N/A   Overcast
4:53 AM 68.0 °F 66.9 °F 96% 29.90 in 10.0 mi Calm Calm - N/A   Mostly Cloudy
5:53 AM 68.0 °F 66.9 °F 96% 29.92 in 10.0 mi Calm Calm - N/A   Mostly Cloudy
6:53 AM 68.0 °F 66.0 °F 93% 29.94 in 10.0 mi Calm Calm - N/A   Mostly Cloudy
7:53 AM 68.0 °F 64.9 °F 90% 29.96 in 10.0 mi SW 5.8 mph - N/A   Mostly Cloudy
8:53 AM 71.1 °F 66.9 °F 87% 29.98 in 10.0 mi West 3.5 mph - N/A   Mostly Cloudy
9:53 AM 73.0 °F 66.0 °F 79% 29.99 in 10.0 mi Calm Calm - N/A   Overcast
10:53 AM 75.0 °F 63.0 °F 66% 30.00 in 10.0 mi North 8.1 mph - N/A   Mostly Cloudy
11:53 AM 75.9 °F 63.0 °F 64% 29.98 in 10.0 mi North 10.4 mph 18.4 mph N/A   Overcast
12:53 PM 75.9 °F 63.0 °F 64% 29.96 in 10.0 mi North 9.2 mph - N/A   Overcast
1:53 PM 75.0 °F 62.1 °F 64% 29.95 in 10.0 mi North 9.2 mph - N/A   Overcast
2:53 PM 73.9 °F 62.1 °F 66% 29.94 in 10.0 mi NNE 6.9 mph - N/A   Overcast
3:53 PM 73.9 °F 62.1 °F 66% 29.93 in 10.0 mi NNE 6.9 mph - N/A   Overcast
4:53 PM 73.9 °F 63.0 °F 68% 29.95 in 10.0 mi NNW 5.8 mph - N/A   Mostly Cloudy
5:53 PM 73.0 °F 63.0 °F 71% 29.96 in 10.0 mi NNW 5.8 mph - N/A   Overcast
6:53 PM 72.0 °F 64.0 °F 76% 29.98 in 10.0 mi Calm Calm - N/A   Overcast
7:53 PM 71.1 °F 66.0 °F 84% 30.00 in 10.0 mi Calm Calm - 0.00 in   Overcast
8:53 PM 70.0 °F 64.0 °F 81% 30.02 in 10.0 mi SW 4.6 mph - N/A   Overcast
9:53 PM 70.0 °F 63.0 °F 78% 30.04 in 10.0 mi Calm Calm - N/A   Overcast
10:53 PM 68.0 °F 64.0 °F 87% 30.04 in 10.0 mi West 3.5 mph - N/A   Partly Cloudy
11:53 PM 66.9 °F 63.0 °F 87% 30.03 in 10.0 mi WSW 4.6 mph - N/A   Clear